カタログに戻る

CZ-6A DEB

運用中SSO
NORAD 55547·DEBRIS·🇨🇳 China

打ち上げ Nov 11, 2022 から Taiyuan Satellite Launch Center

Loading…

次のパス (今後24時間)

TLE

最新Source: Space-Track

元期: Sep 12, 2026, 21:50 UTC

1 55547U 22151YV  26255.91036685  .00002619  00000-0  13848-2 0  9999
2 55547  98.9129 250.0469 0090995 137.3966 223.4311 14.12524568191149

AllMySatでCZ-6A DEBをリアルタイム追跡

Download on the App Store